ASK593 EPWA-LWSK

Flight info

Callsign ASK593
Flight time 1h 42m
Altitude 34000
Route EVINA M66 BABKO/N0456F350 DCT LITKU DCT PARAK DCT BGD DCT REDVA UL616 KOGAT
Aircraft B738/M-SDE2E3FGHIRWXY/LB1

Departure

Time 2026-05-06 08:29
Airport Warsaw Chopin Airport (EPWA)

Arrival

Time 2026-05-06 10:12
Airport Skopje International Airport (LWSK)
Time Latitude Longitude Altitude Speed Heading
2026-05-06 08:01 52.16957 20.97189 338 ft 0 kts 68°
2026-05-06 08:19 52.16954 20.97177 338 ft 3 kts 68°
2026-05-06 08:19 52.16946 20.97145 334 ft 3 kts 68°
2026-05-06 08:20 52.16938 20.97113 335 ft 3 kts 68°
2026-05-06 08:20 52.16931 20.97086 333 ft 3 kts 75°
2026-05-06 08:20 52.16930 20.97055 335 ft 3 kts 116°
2026-05-06 08:20 52.16942 20.97030 336 ft 3 kts 146°
2026-05-06 08:21 52.16955 20.97017 335 ft 0 kts 152°
2026-05-06 08:25 52.16921 20.97047 337 ft 13 kts 152°
2026-05-06 08:25 52.16831 20.97125 336 ft 11 kts 152°
2026-05-06 08:25 52.16766 20.97176 335 ft 10 kts 166°
2026-05-06 08:26 52.16706 20.97110 336 ft 13 kts 239°
2026-05-06 08:26 52.16658 20.97075 337 ft 6 kts 126°
2026-05-06 08:26 52.16632 20.97166 337 ft 12 kts 114°
2026-05-06 08:26 52.16587 20.97326 334 ft 19 kts 115°
2026-05-06 08:27 52.16524 20.97549 336 ft 24 kts 114°
2026-05-06 08:27 52.16460 20.97773 338 ft 17 kts 116°
2026-05-06 08:27 52.16380 20.97777 338 ft 12 kts 203°
2026-05-06 08:27 52.16312 20.97728 335 ft 7 kts 204°
2026-05-06 08:28 52.16296 20.97695 333 ft 4 kts 277°
2026-05-06 08:28 52.16310 20.97655 334 ft 5 kts 298°
2026-05-06 08:28 52.16359 20.97480 334 ft 45 kts 294°
2026-05-06 08:28 52.16590 20.96657 336 ft 113 kts 295°
2026-05-06 08:29 52.16998 20.95206 373 ft 164 kts 294°
2026-05-06 08:29 52.17482 20.93427 952 ft 182 kts 291°
2026-05-06 08:29 52.17985 20.91444 1813 ft 200 kts 289°
2026-05-06 08:29 52.18224 20.89187 2615 ft 206 kts 256°
2026-05-06 08:30 52.17852 20.86915 3575 ft 210 kts 251°
2026-05-06 08:30 52.17511 20.84576 4500 ft 214 kts 252°
2026-05-06 08:30 52.17187 20.82222 5440 ft 207 kts 252°
2026-05-06 08:30 52.16885 20.79961 6117 ft 200 kts 252°
2026-05-06 08:31 52.16596 20.77793 6722 ft 195 kts 251°
2026-05-06 08:31 52.16289 20.75523 6929 ft 217 kts 252°
2026-05-06 08:31 52.15947 20.73008 7133 ft 239 kts 252°
2026-05-06 08:31 52.15232 20.70506 7320 ft 253 kts 224°
2026-05-06 08:32 52.13854 20.68666 7872 ft 259 kts 217°
2026-05-06 08:32 52.12416 20.66858 8532 ft 263 kts 217°
2026-05-06 08:32 52.10964 20.65031 9281 ft 265 kts 218°
2026-05-06 08:32 52.09500 20.63188 9977 ft 269 kts 218°
2026-05-06 08:33 52.07967 20.61257 10216 ft 290 kts 218°
2026-05-06 08:33 52.06330 20.59194 10385 ft 311 kts 218°
2026-05-06 08:33 52.04577 20.56985 10553 ft 331 kts 218°
2026-05-06 08:33 52.02727 20.54652 10930 ft 342 kts 218°
2026-05-06 08:34 52.00832 20.52263 11538 ft 346 kts 218°
2026-05-06 08:34 51.97015 20.47465 12962 ft 349 kts 217°
2026-05-06 08:34 51.95001 20.45236 13607 ft 354 kts 206°
2026-05-06 08:35 51.92640 20.44053 14210 ft 359 kts 190°
2026-05-06 08:35 51.90148 20.43607 14855 ft 363 kts 187°
2026-05-06 08:35 51.87619 20.43262 15464 ft 367 kts 187°
2026-05-06 08:35 51.85092 20.42929 16066 ft 371 kts 187°
2026-05-06 08:36 51.82511 20.42575 16689 ft 374 kts 187°
2026-05-06 08:36 51.79910 20.42201 17295 ft 377 kts 187°
2026-05-06 08:36 51.77247 20.41806 17895 ft 381 kts 187°
2026-05-06 08:36 51.74632 20.41411 18417 ft 384 kts 188°
2026-05-06 08:37 51.71962 20.41005 18931 ft 387 kts 188°
2026-05-06 08:37 51.69279 20.40597 19464 ft 390 kts 188°
2026-05-06 08:37 51.66568 20.40186 19985 ft 393 kts 188°
2026-05-06 08:37 51.63833 20.39771 20499 ft 396 kts 188°
2026-05-06 08:38 51.61078 20.39354 20970 ft 399 kts 188°
2026-05-06 08:38 51.58301 20.38934 21455 ft 402 kts 188°
2026-05-06 08:38 51.55504 20.38511 21925 ft 405 kts 188°
2026-05-06 08:38 51.52681 20.38085 22396 ft 408 kts 188°
2026-05-06 08:39 51.49847 20.37658 22853 ft 411 kts 188°
2026-05-06 08:39 51.46986 20.37228 23296 ft 414 kts 188°
2026-05-06 08:39 51.44105 20.36795 23647 ft 418 kts 188°
2026-05-06 08:39 51.41194 20.36358 23995 ft 422 kts 188°
2026-05-06 08:40 51.38279 20.35831 24401 ft 421 kts 193°
2026-05-06 08:40 51.35464 20.34597 24830 ft 419 kts 200°
2026-05-06 08:40 51.32697 20.33102 25222 ft 420 kts 201°
2026-05-06 08:40 51.29928 20.31563 25568 ft 423 kts 201°
2026-05-06 08:41 51.27136 20.30028 25937 ft 425 kts 201°
2026-05-06 08:41 51.24330 20.28518 26298 ft 427 kts 200°
2026-05-06 08:41 51.21506 20.27027 26625 ft 429 kts 200°
2026-05-06 08:41 51.18665 20.25547 26917 ft 432 kts 200°
2026-05-06 08:42 51.15795 20.24063 27240 ft 434 kts 200°
2026-05-06 08:42 51.12917 20.22581 27593 ft 435 kts 200°
2026-05-06 08:42 51.10034 20.21099 27924 ft 436 kts 200°
2026-05-06 08:42 51.07140 20.19613 28260 ft 437 kts 200°
2026-05-06 08:43 51.04250 20.18129 28695 ft 436 kts 200°
2026-05-06 08:43 51.01370 20.16652 29223 ft 433 kts 200°
2026-05-06 08:43 50.98512 20.15188 29734 ft 431 kts 200°
2026-05-06 08:43 50.95662 20.13728 30086 ft 430 kts 200°
2026-05-06 08:44 50.92813 20.12272 30411 ft 430 kts 200°
2026-05-06 08:44 50.89971 20.10825 30782 ft 429 kts 200°
2026-05-06 08:44 50.87136 20.09393 31169 ft 427 kts 200°
2026-05-06 08:44 50.84310 20.07969 31530 ft 426 kts 200°
2026-05-06 08:45 50.81491 20.06551 31874 ft 425 kts 200°
2026-05-06 08:45 50.78677 20.05131 32230 ft 423 kts 200°
2026-05-06 08:45 50.75878 20.03713 32578 ft 422 kts 200°
2026-05-06 08:45 50.73089 20.02297 32903 ft 422 kts 200°
2026-05-06 08:46 50.70341 20.00902 33163 ft 422 kts 200°
2026-05-06 08:46 50.64730 19.98056 33414 ft 429 kts 200°
2026-05-06 08:46 50.61898 19.96625 33783 ft 427 kts 200°
2026-05-06 08:47 50.59058 19.95192 33779 ft 431 kts 200°
2026-05-06 08:47 50.53364 19.92326 33797 ft 428 kts 200°
2026-05-06 08:48 50.47738 19.89502 33801 ft 422 kts 200°
2026-05-06 08:48 50.42142 19.86698 33813 ft 422 kts 200°
2026-05-06 08:49 50.36544 19.83900 33820 ft 422 kts 200°
2026-05-06 08:49 50.30947 19.81109 33823 ft 423 kts 200°
2026-05-06 08:50 50.25341 19.78321 33825 ft 423 kts 200°
2026-05-06 08:50 50.19732 19.75538 33831 ft 423 kts 200°
2026-05-06 08:51 50.14118 19.72760 33829 ft 424 kts 200°
2026-05-06 08:51 50.08533 19.70003 33819 ft 424 kts 200°
2026-05-06 08:52 50.02890 19.67224 33824 ft 424 kts 200°
2026-05-06 08:52 49.97294 19.64475 33826 ft 425 kts 200°
2026-05-06 08:53 49.91651 19.61709 33829 ft 425 kts 200°
2026-05-06 08:53 49.85999 19.58946 33822 ft 426 kts 200°
2026-05-06 08:54 49.80476 19.56253 33846 ft 427 kts 200°
2026-05-06 08:54 49.74901 19.53540 33836 ft 428 kts 200°
2026-05-06 08:55 49.69226 19.50785 33837 ft 428 kts 200°
2026-05-06 08:55 49.63540 19.48070 34003 ft 426 kts 197°
2026-05-06 08:55 49.60627 19.47262 34238 ft 427 kts 189°
2026-05-06 08:56 49.57651 19.47106 34478 ft 430 kts 180°
2026-05-06 08:56 49.55673 19.47291 34651 ft 429 kts 180°
2026-05-06 08:56 49.52699 19.47607 34850 ft 429 kts 179°
2026-05-06 08:57 49.46676 19.48257 34855 ft 438 kts 180°
2026-05-06 08:57 49.41000 19.48834 34846 ft 436 kts 180°
2026-05-06 08:58 49.34955 19.49428 34861 ft 434 kts 180°
2026-05-06 08:58 49.28939 19.50005 34855 ft 433 kts 180°
2026-05-06 08:59 49.22924 19.50578 34871 ft 433 kts 180°
2026-05-06 08:59 49.17183 19.51123 34874 ft 433 kts 180°
2026-05-06 09:00 49.11173 19.51692 34877 ft 434 kts 180°
2026-05-06 09:00 49.05145 19.52263 34885 ft 435 kts 180°
2026-05-06 09:01 48.99102 19.52835 34883 ft 436 kts 180°
2026-05-06 09:01 48.93105 19.53401 34887 ft 436 kts 180°
2026-05-06 09:02 48.87106 19.53963 34901 ft 437 kts 180°
2026-05-06 09:02 48.81508 19.54488 34909 ft 438 kts 180°
2026-05-06 09:03 48.75451 19.55055 34889 ft 439 kts 180°
2026-05-06 09:03 48.69775 19.55586 34906 ft 439 kts 180°
2026-05-06 09:04 48.63672 19.56154 34916 ft 440 kts 180°
2026-05-06 09:04 48.57641 19.56715 34924 ft 439 kts 180°
2026-05-06 09:05 48.51538 19.57281 34918 ft 440 kts 180°
2026-05-06 09:05 48.45434 19.57845 34922 ft 439 kts 180°
2026-05-06 09:06 48.39336 19.58408 34919 ft 439 kts 180°
2026-05-06 09:06 48.33249 19.58968 34922 ft 439 kts 180°
2026-05-06 09:07 48.27146 19.59529 34915 ft 439 kts 180°
2026-05-06 09:07 48.21493 19.60165 34917 ft 441 kts 176°
2026-05-06 09:08 48.15389 19.61635 34915 ft 442 kts 173°
2026-05-06 09:08 48.09520 19.63195 34932 ft 443 kts 174°
2026-05-06 09:09 48.03477 19.64753 34912 ft 444 kts 174°
2026-05-06 09:09 47.97447 19.66259 34929 ft 444 kts 174°
2026-05-06 09:10 47.91341 19.67764 34940 ft 445 kts 174°
2026-05-06 09:10 47.85299 19.69246 34938 ft 446 kts 174°
2026-05-06 09:11 47.79171 19.70748 34924 ft 447 kts 174°
2026-05-06 09:11 47.73026 19.72250 34932 ft 448 kts 174°
2026-05-06 09:12 47.66881 19.73751 34938 ft 448 kts 174°
2026-05-06 09:12 47.60721 19.75250 34939 ft 449 kts 174°
2026-05-06 09:13 47.54550 19.76749 34931 ft 449 kts 174°
2026-05-06 09:13 47.48374 19.78246 34943 ft 450 kts 174°
2026-05-06 09:14 47.42197 19.79739 34945 ft 450 kts 174°
2026-05-06 09:14 47.36560 19.81098 34950 ft 451 kts 174°
2026-05-06 09:15 47.30444 19.82570 34947 ft 451 kts 174°
2026-05-06 09:15 47.25171 19.83836 34937 ft 451 kts 174°
2026-05-06 09:16 47.19114 19.85287 34949 ft 452 kts 174°
2026-05-06 09:16 47.13588 19.86608 34961 ft 452 kts 174°
2026-05-06 09:17 47.07610 19.88033 34967 ft 453 kts 174°
2026-05-06 09:17 47.01903 19.89392 34965 ft 454 kts 174°
2026-05-06 09:18 46.95971 19.90800 34966 ft 454 kts 174°
2026-05-06 09:18 46.89750 19.92275 34967 ft 455 kts 174°
2026-05-06 09:19 46.83500 19.93752 34959 ft 455 kts 174°
2026-05-06 09:19 46.77554 19.95155 34959 ft 455 kts 174°
2026-05-06 09:20 46.71346 19.96615 34968 ft 455 kts 174°
2026-05-06 09:20 46.65099 19.98082 34956 ft 455 kts 175°
2026-05-06 09:21 46.58838 19.99548 34975 ft 456 kts 175°
2026-05-06 09:21 46.52628 20.00999 34982 ft 456 kts 175°
2026-05-06 09:22 46.46362 20.02460 34964 ft 456 kts 175°
2026-05-06 09:22 46.40094 20.03918 34972 ft 456 kts 175°
2026-05-06 09:23 46.33827 20.05372 34978 ft 456 kts 175°
2026-05-06 09:23 46.27574 20.06820 34977 ft 455 kts 175°
2026-05-06 09:24 46.21316 20.08266 34973 ft 455 kts 175°
2026-05-06 09:24 46.15734 20.09550 34977 ft 454 kts 175°
2026-05-06 09:25 46.09949 20.10606 34981 ft 452 kts 178°
2026-05-06 09:25 46.04273 20.11473 34983 ft 452 kts 178°
2026-05-06 09:26 45.98450 20.12374 34976 ft 452 kts 178°
2026-05-06 09:26 45.92904 20.13263 34986 ft 452 kts 178°
2026-05-06 09:27 45.86925 20.14239 34981 ft 453 kts 178°
2026-05-06 09:27 45.80846 20.15233 34989 ft 454 kts 178°
2026-05-06 09:28 45.75358 20.16129 34977 ft 455 kts 178°
2026-05-06 09:28 45.70403 20.16935 34992 ft 456 kts 178°
2026-05-06 09:29 45.64824 20.17841 34992 ft 457 kts 178°
2026-05-06 09:29 45.58733 20.18828 34989 ft 458 kts 178°
2026-05-06 09:30 45.52548 20.19829 34992 ft 459 kts 178°
2026-05-06 09:30 45.47024 20.20720 34997 ft 459 kts 178°
2026-05-06 09:31 45.40896 20.21707 34990 ft 460 kts 178°
2026-05-06 09:31 45.35132 20.22633 34992 ft 461 kts 178°
2026-05-06 09:32 45.28912 20.23631 35002 ft 461 kts 178°
2026-05-06 09:32 45.23446 20.24505 35002 ft 461 kts 178°
2026-05-06 09:33 45.17060 20.25525 35006 ft 462 kts 178°
2026-05-06 09:33 45.11202 20.26458 34999 ft 462 kts 178°
2026-05-06 09:34 45.05013 20.27443 35010 ft 462 kts 178°
2026-05-06 09:34 44.98628 20.28456 35022 ft 462 kts 178°
2026-05-06 09:35 44.92244 20.29467 35021 ft 462 kts 178°
2026-05-06 09:35 44.85900 20.30469 35018 ft 462 kts 178°
2026-05-06 09:36 44.79513 20.31475 35018 ft 462 kts 178°
2026-05-06 09:36 44.73120 20.32476 35024 ft 462 kts 178°
2026-05-06 09:37 44.66719 20.33477 35027 ft 462 kts 178°
2026-05-06 09:37 44.60322 20.34475 35013 ft 463 kts 178°
2026-05-06 09:38 44.53926 20.35471 35013 ft 462 kts 178°
2026-05-06 09:38 44.47534 20.36465 35011 ft 462 kts 178°
2026-05-06 09:39 44.41129 20.37458 35006 ft 463 kts 178°
2026-05-06 09:39 44.34727 20.38448 35009 ft 463 kts 178°
2026-05-06 09:40 44.28322 20.39437 35008 ft 463 kts 178°
2026-05-06 09:40 44.18712 20.40917 35013 ft 463 kts 178°
2026-05-06 09:41 44.12351 20.41894 35012 ft 463 kts 178°
2026-05-06 09:41 44.05945 20.42875 35006 ft 463 kts 178°
2026-05-06 09:42 43.99538 20.43855 35023 ft 463 kts 178°
2026-05-06 09:42 43.93123 20.44833 35019 ft 464 kts 178°
2026-05-06 09:43 43.86699 20.45811 35017 ft 464 kts 178°
2026-05-06 09:43 43.80290 20.46784 35024 ft 464 kts 178°
2026-05-06 09:44 43.73864 20.47759 35024 ft 464 kts 178°
2026-05-06 09:44 43.67444 20.48729 35022 ft 464 kts 178°
2026-05-06 09:45 43.61014 20.49700 35019 ft 464 kts 178°
2026-05-06 09:45 43.54596 20.50666 35036 ft 465 kts 178°
2026-05-06 09:46 43.49250 20.51470 35025 ft 465 kts 178°
2026-05-06 09:46 43.42818 20.52435 35033 ft 464 kts 178°
2026-05-06 09:47 43.36388 20.53397 35031 ft 465 kts 178°
2026-05-06 09:47 43.29963 20.54357 35027 ft 464 kts 178°
2026-05-06 09:48 43.23557 20.55312 35036 ft 464 kts 178°
2026-05-06 09:48 43.20325 20.55792 34581 ft 470 kts 178°
2026-05-06 09:48 43.17076 20.56274 34016 ft 469 kts 178°
2026-05-06 09:49 43.13825 20.56758 33309 ft 470 kts 178°
2026-05-06 09:49 43.10574 20.57241 32609 ft 470 kts 178°
2026-05-06 09:49 43.07318 20.57724 31928 ft 471 kts 178°
2026-05-06 09:49 43.04064 20.58205 31228 ft 472 kts 177°
2026-05-06 09:50 43.00814 20.58940 30507 ft 476 kts 169°
2026-05-06 09:50 42.97668 20.60375 30022 ft 475 kts 161°
2026-05-06 09:50 42.94887 20.61879 29480 ft 472 kts 161°
2026-05-06 09:50 42.91856 20.63538 28967 ft 466 kts 161°
2026-05-06 09:51 42.88861 20.65170 28432 ft 461 kts 161°
2026-05-06 09:51 42.85893 20.66770 27931 ft 456 kts 161°
2026-05-06 09:51 42.82949 20.68339 27416 ft 452 kts 161°
2026-05-06 09:51 42.80032 20.69881 26913 ft 448 kts 161°
2026-05-06 09:52 42.77133 20.71406 26417 ft 445 kts 161°
2026-05-06 09:52 42.74255 20.72916 25919 ft 442 kts 161°
2026-05-06 09:52 42.71436 20.74393 25437 ft 438 kts 161°
2026-05-06 09:52 42.68600 20.75878 24940 ft 435 kts 162°
2026-05-06 09:53 42.65779 20.77353 24461 ft 433 kts 162°
2026-05-06 09:53 42.62976 20.78819 23981 ft 430 kts 161°
2026-05-06 09:53 42.60186 20.80276 23443 ft 429 kts 161°
2026-05-06 09:53 42.57413 20.81723 22882 ft 426 kts 161°
2026-05-06 09:54 42.54659 20.83159 22375 ft 422 kts 161°
2026-05-06 09:54 42.51929 20.84583 21882 ft 419 kts 161°
2026-05-06 09:54 42.49219 20.85994 21393 ft 416 kts 161°
2026-05-06 09:54 42.46525 20.87395 20900 ft 413 kts 161°
2026-05-06 09:55 42.43860 20.88779 20430 ft 410 kts 161°
2026-05-06 09:55 42.41206 20.90157 19953 ft 406 kts 161°
2026-05-06 09:55 42.38577 20.91521 19491 ft 404 kts 161°
2026-05-06 09:55 42.35962 20.92876 19020 ft 401 kts 161°
2026-05-06 09:56 42.33361 20.94223 18541 ft 399 kts 161°
2026-05-06 09:56 42.30782 20.95556 18013 ft 398 kts 161°
2026-05-06 09:56 42.28204 20.96889 17504 ft 395 kts 161°
2026-05-06 09:56 42.25646 20.98210 16993 ft 392 kts 161°
2026-05-06 09:57 42.23110 20.99520 16524 ft 389 kts 161°
2026-05-06 09:57 42.20593 21.00817 16054 ft 386 kts 161°
2026-05-06 09:57 42.18096 21.02104 15588 ft 383 kts 161°
2026-05-06 09:57 42.15620 21.03379 15128 ft 380 kts 161°
2026-05-06 09:58 42.13188 21.04734 14647 ft 379 kts 153°
2026-05-06 09:58 42.11176 21.07002 14235 ft 378 kts 130°
2026-05-06 09:58 42.09852 21.09959 14028 ft 371 kts 114°
2026-05-06 09:58 42.08860 21.13143 13750 ft 367 kts 112°
2026-05-06 09:59 42.07914 21.16318 13326 ft 364 kts 112°
2026-05-06 09:59 42.06978 21.19466 12881 ft 361 kts 112°
2026-05-06 09:59 42.06041 21.22589 12442 ft 359 kts 112°
2026-05-06 09:59 42.05103 21.25683 11984 ft 356 kts 112°
2026-05-06 10:00 42.04161 21.28761 11559 ft 354 kts 113°
2026-05-06 10:00 42.03220 21.31819 11075 ft 354 kts 113°
2026-05-06 10:00 42.02289 21.34833 10849 ft 346 kts 113°
2026-05-06 10:00 42.01377 21.37778 10660 ft 337 kts 113°
2026-05-06 10:01 42.00487 21.40648 10507 ft 328 kts 113°
2026-05-06 10:01 41.99620 21.43442 10363 ft 320 kts 114°
2026-05-06 10:01 41.98782 21.46137 10220 ft 312 kts 114°
2026-05-06 10:01 41.97958 21.48787 10076 ft 304 kts 114°
2026-05-06 10:02 41.97155 21.51365 9938 ft 297 kts 114°
2026-05-06 10:02 41.96370 21.53885 9802 ft 289 kts 114°
2026-05-06 10:02 41.95580 21.56413 9296 ft 293 kts 114°
2026-05-06 10:02 41.94792 21.58933 8913 ft 290 kts 114°
2026-05-06 10:03 41.93971 21.61383 8573 ft 285 kts 123°
2026-05-06 10:03 41.92592 21.63193 8211 ft 277 kts 154°
2026-05-06 10:03 41.90800 21.64047 7887 ft 273 kts 167°
2026-05-06 10:03 41.88960 21.64676 7599 ft 273 kts 167°
2026-05-06 10:04 41.87120 21.65309 7317 ft 272 kts 167°
2026-05-06 10:04 41.85309 21.65944 7036 ft 273 kts 166°
2026-05-06 10:04 41.83447 21.66619 6736 ft 274 kts 163°
2026-05-06 10:04 41.81846 21.67912 6439 ft 277 kts 134°
2026-05-06 10:05 41.80755 21.70022 6207 ft 274 kts 122°
2026-05-06 10:05 41.79793 21.72186 5909 ft 269 kts 122°
2026-05-06 10:05 41.78853 21.74291 5798 ft 258 kts 122°
2026-05-06 10:05 41.77875 21.76248 5602 ft 250 kts 137°
2026-05-06 10:06 41.76357 21.77225 5381 ft 243 kts 178°
2026-05-06 10:06 41.74751 21.76759 5422 ft 236 kts 208°
2026-05-06 10:06 41.73534 21.75298 5173 ft 239 kts 239°
2026-05-06 10:06 41.73070 21.73201 4920 ft 236 kts 271°
2026-05-06 10:07 41.73506 21.71136 4579 ft 233 kts 303°
2026-05-06 10:07 41.74700 21.69734 4194 ft 231 kts 339°
2026-05-06 10:07 41.76232 21.69141 3859 ft 229 kts 345°
2026-05-06 10:07 41.77771 21.68583 3604 ft 225 kts 345°
2026-05-06 10:08 41.79231 21.68062 3588 ft 209 kts 346°
2026-05-06 10:08 41.80593 21.67584 3582 ft 198 kts 346°
2026-05-06 10:08 41.81872 21.67137 3550 ft 182 kts 346°
2026-05-06 10:08 41.83070 21.66721 3399 ft 176 kts 346°
2026-05-06 10:09 41.84240 21.66311 3155 ft 172 kts 346°
2026-05-06 10:09 41.85380 21.65910 2925 ft 166 kts 347°
2026-05-06 10:09 41.86470 21.65530 2732 ft 158 kts 347°
2026-05-06 10:09 41.87549 21.65153 2457 ft 159 kts 346°
2026-05-06 10:10 41.88602 21.64784 2210 ft 156 kts 346°
2026-05-06 10:10 41.89668 21.64412 1996 ft 157 kts 346°
2026-05-06 10:10 41.90718 21.64045 1764 ft 156 kts 346°
2026-05-06 10:10 41.91760 21.63681 1523 ft 153 kts 346°
2026-05-06 10:11 41.92798 21.63318 1326 ft 156 kts 346°
2026-05-06 10:11 41.93846 21.62948 1083 ft 154 kts 347°
2026-05-06 10:11 41.94874 21.62593 856 ft 157 kts 346°
2026-05-06 10:11 41.95908 21.62232 786 ft 138 kts 345°
2026-05-06 10:12 41.96607 21.61991 789 ft 74 kts 345°
2026-05-06 10:12 41.96901 21.61886 789 ft 27 kts 345°
2026-05-06 10:12 41.97003 21.61906 789 ft 9 kts 71°
2026-05-06 10:12 41.96992 21.61963 789 ft 6 kts 123°
2026-05-06 10:13 41.96966 21.62011 790 ft 7 kts 129°
2026-05-06 10:13 41.96962 21.62016 790 ft 0 kts 129°
2026-05-06 10:14 41.96961 21.62019 790 ft 3 kts 129°
2026-05-06 10:14 41.96919 21.62089 791 ft 14 kts 128°
2026-05-06 10:15 41.96846 21.62170 793 ft 14 kts 158°
2026-05-06 10:15 41.96757 21.62201 792 ft 13 kts 166°
2026-05-06 10:15 41.96671 21.62232 792 ft 13 kts 165°
2026-05-06 10:15 41.96587 21.62261 792 ft 12 kts 165°
2026-05-06 10:16 41.96505 21.62291 792 ft 12 kts 165°
2026-05-06 10:16 41.96425 21.62321 792 ft 12 kts 164°
2026-05-06 10:16 41.96347 21.62346 791 ft 11 kts 168°
2026-05-06 10:16 41.96271 21.62371 791 ft 11 kts 165°
2026-05-06 10:17 41.96198 21.62399 791 ft 11 kts 165°
2026-05-06 10:17 41.96133 21.62425 790 ft 7 kts 146°
2026-05-06 10:17 41.96128 21.62469 792 ft 5 kts 78°
2026-05-06 10:17 41.96124 21.62500 792 ft 3 kts 145°
2026-05-06 10:18 41.96102 21.62512 792 ft 3 kts 159°
2026-05-06 10:18 41.96080 21.62521 792 ft 3 kts 167°
2026-05-06 10:18 41.96067 21.62525 792 ft 0 kts 166°
2026-05-06 10:18 41.96064 21.62526 792 ft 0 kts 166°
2026-05-06 10:19 41.96056 21.62528 792 ft 3 kts 166°
2026-05-06 10:19 41.96026 21.62539 792 ft 3 kts 166°
2026-05-06 10:19 41.96022 21.62556 792 ft 0 kts 72°
2026-05-06 10:20 41.96023 21.62561 792 ft 3 kts 72°
2026-05-06 10:20 41.96029 21.62584 792 ft 1 kts 75°
2026-05-06 10:21 41.96030 21.62594 792 ft 1 kts 75°
2026-05-06 10:21 41.96031 21.62599 792 ft 0 kts 76°
2026-05-06 10:21 41.96032 21.62602 792 ft 0 kts 76°
2026-05-06 10:21 41.96032 21.62603 792 ft 0 kts 76°